EW1689 Weather Reports


Display with metric or nautical units.
time (UTC)temp
F
wind
direction
speed
MPH
gust
MPH
rain 1hr
in
rain 24hr
in
rain mn
in
humidity
%
barometer
mb
20260905014516 94 0.0 1.0 0.00 0.00 0.00 33 1010.4
20260905013517 94 0.0 3.0 0.00 0.00 0.00 33 1010.5
20260905012517 94 0.0 0.0 0.00 0.00 0.00 32 1010.5
20260905011536 94 0.0 2.0 0.00 0.00 0.00 33 1010.4
20260905010657 95 0 1.0 2.0 0.00 0.00 0.00 32 1010.5
20260905005516 95 0.0 2.0 0.00 0.00 0.00 32 1010.5
20260905004517 96 0 1.0 2.0 0.00 0.00 0.00 32 1010.6
20260905003516 96 0 1.0 3.0 0.00 0.00 0.00 32 1010.7
20260905002516 96 0.0 2.0 0.00 0.00 0.00 32 1010.8
20260905001536 96 0 2.0 4.0 0.00 0.00 0.00 32 1010.8
20260905000516 96 0.0 2.0 0.00 0.00 0.00 32 1010.8
20260904235516 97 0.0 2.0 0.00 0.00 0.00 31 1010.8
20260904234516 97 180 2.0 4.0 0.00 0.00 0.00 30 1010.8
20260904233536 98 203 1.0 2.0 0.00 0.00 0.00 30 1011.0
20260904232516 98 203 1.0 3.0 0.00 0.00 0.00 31 1011.0
20260904231516 98 225 1.0 3.0 0.00 0.00 0.00 30 1011.2
20260904230516 97 135 3.0 7.0 0.00 0.00 0.00 29 1010.9
20260904225517 98 158 3.0 8.0 0.00 0.00 0.00 28 1011.1
20260904224516 99 203 2.0 9.0 0.00 0.00 0.00 29 1011.2
20260904223517 100 203 2.0 8.0 0.00 0.00 0.00 27 1011.5
20260904222516 100 203 2.0 4.0 0.00 0.00 0.00 27 1011.5
20260904221516 99 0 1.0 4.0 0.00 0.00 0.00 29 1011.7
20260904220516 99 0 3.0 7.0 0.00 0.00 0.00 28 1011.8
20260904215516 99 0 3.0 8.0 0.00 0.00 0.00 28 1012.0
20260904214516 98 0 3.0 10.0 0.00 0.00 0.00 27 1011.9
20260904213516 98 0 2.0 5.0 0.00 0.00 0.00 31 1012.0
20260904212536 98 0 3.0 8.0 0.00 0.00 0.00 32 1012.3
20260904211616 97 0 5.0 9.0 0.00 0.00 0.00 31 1012.4
20260904210516 96 0 4.0 9.0 0.00 0.00 0.00 33 1012.4
20260904205516 96 0 4.0 8.0 0.00 0.00 0.00 34 1012.4
20260904204516 97 0 4.0 8.0 0.00 0.00 0.00 31 1012.6
20260904203516 96 0 3.0 7.0 0.00 0.00 0.00 35 1012.7
20260904202536 96 0 3.0 8.0 0.00 0.00 0.00 35 1012.9
20260904201515 96 0 4.0 9.0 0.00 0.00 0.00 35 1013.0
20260904200516 96 0 3.0 6.0 0.00 0.00 0.00 36 1013.2
20260904195516 95 0 2.0 6.0 0.00 0.00 0.00 36 1013.2
20260904194516 96 0 5.0 10.0 0.00 0.00 0.00 37 1013.4
20260904193516 96 0 2.0 7.0 0.00 0.00 0.00 38 1013.4
20260904192516 95 0 3.0 9.0 0.00 0.00 0.00 38 1013.6
20260904191515 94 0 3.0 9.0 0.00 0.00 0.00 38 1013.9
20260904190515 95 0 4.0 8.0 0.00 0.00 0.00 39 1014.0
20260904185516 94 0 3.0 8.0 0.00 0.00 0.00 39 1014.0
20260904184515 93 0 4.0 10.0 0.00 0.00 0.00 42 1014.1
20260904183516 93 0 5.0 10.0 0.00 0.00 0.00 42 1014.3
20260904182535 93 0 5.0 9.0 0.00 0.00 0.00 42 1014.4
20260904181536 92 0 4.0 8.0 0.00 0.00 0.00 42 1014.6
20260904180516 92 0 3.0 10.0 0.00 0.00 0.00 43 1014.6
20260904175516 92 0 3.0 8.0 0.00 0.00 0.00 44 1014.7
20260904174518 91 0 4.0 8.0 0.00 0.00 0.00 45 1014.7
20260904173517 91 0 4.0 9.0 0.00 0.00 0.00 46 1014.7
20260904172538 90 0 5.0 9.0 0.00 0.00 0.00 48 1014.7
20260904171518 90 0 6.0 10.0 0.00 0.00 0.00 47 1014.6
20260904170517 90 0 5.0 9.0 0.00 0.00 0.00 47 1014.5
20260904165517 90 0 4.0 8.0 0.00 0.00 0.00 48 1014.5
20260904164517 90 0 5.0 12.0 0.00 0.00 0.00 48 1014.4
20260904163518 89 0 5.0 8.0 0.00 0.00 0.00 50 1014.3
20260904162517 89 0 5.0 9.0 0.00 0.00 0.00 49 1014.4
20260904161517 89 0 4.0 8.0 0.00 0.00 0.00 51 1014.4
20260904160517 89 0 5.0 10.0 0.00 0.00 0.00 51 1014.2
20260904155517 88 0 3.0 6.0 0.00 0.00 0.00 54 1014.2
20260904154517 87 0 5.0 11.0 0.00 0.00 0.00 54 1014.2
20260904153517 87 0 4.0 9.0 0.00 0.00 0.00 55 1014.1
20260904152517 86 0 4.0 9.0 0.00 0.00 0.00 57 1014.0
20260904151517 86 0 4.0 8.0 0.00 0.00 0.00 57 1014.1
20260904150517 86 0 4.0 8.0 0.00 0.00 0.00 58 1014.0
20260904145517 85 0 3.0 8.0 0.00 0.00 0.00 59 1014.0
20260904144517 85 0 4.0 7.0 0.00 0.00 0.00 60 1014.0
20260904143517 84 0 4.0 10.0 0.00 0.00 0.00 60 1013.9
20260904142517 84 0 4.0 7.0 0.00 0.00 0.00 61 1014.0
20260904141517 84 0 3.0 7.0 0.00 0.00 0.00 61 1013.9
20260904140517 83 0 2.0 4.0 0.00 0.00 0.00 62 1013.7
20260904135517 83 0 3.0 7.0 0.00 0.00 0.00 62 1013.6
20260904134517 82 0 2.0 4.0 0.00 0.00 0.00 63 1013.4
20260904133517 82 0 2.0 4.0 0.00 0.00 0.00 63 1013.3
20260904132517 81 0 1.0 4.0 0.00 0.00 0.00 64 1013.0
20260904131517 81 0 1.0 3.0 0.00 0.00 0.00 64 1012.8
20260904130517 81 0 1.0 3.0 0.00 0.00 0.00 64 1012.6
20260904125517 81 0 1.0 3.0 0.00 0.00 0.00 64 1012.7
20260904124517 81 0 1.0 3.0 0.00 0.00 0.00 64 1012.6
20260904123517 81 0 1.0 3.0 0.00 0.00 0.00 64 1012.5
20260904122516 81 0.0 1.0 0.00 0.00 0.00 63 1012.4
20260904121537 81 0 1.0 3.0 0.00 0.00 0.00 63 1012.4
20260904120537 82 0 1.0 2.0 0.00 0.00 0.00 62 1012.3
20260904115537 82 0 1.0 3.0 0.00 0.00 0.00 62 1012.4
20260904114517 82 0.0 2.0 0.00 0.00 0.00 62 1012.4
20260904113537 82 0 1.0 4.0 0.00 0.00 0.00 62 1012.3
20260904112516 82 0 1.0 3.0 0.00 0.00 0.00 61 1012.4
20260904111517 82 0 1.0 2.0 0.00 0.00 0.00 61 1012.3
20260904110516 82 0 1.0 2.0 0.00 0.00 0.00 61 1012.3
20260904105516 82 0 1.0 3.0 0.00 0.00 0.00 61 1012.3
20260904104516 82 0 1.0 3.0 0.00 0.00 0.00 61 1012.2
20260904103517 83 0 2.0 4.0 0.00 0.00 0.00 60 1012.1
20260904102517 83 0 2.0 4.0 0.00 0.00 0.00 60 1012.1
20260904101637 83 0 1.0 3.0 0.00 0.00 0.00 60 1012.0
20260904100516 83 0 2.0 4.0 0.00 0.00 0.00 59 1012.0
20260904095516 83 0 2.0 5.0 0.00 0.00 0.00 59 1012.0
20260904094516 83 0 2.0 4.0 0.00 0.00 0.00 59 1012.0
20260904093516 83 0 1.0 4.0 0.00 0.00 0.00 59 1011.9
20260904092536 83 0 2.0 4.0 0.00 0.00 0.00 59 1011.9
20260904091516 83 0 2.0 4.0 0.00 0.00 0.00 58 1011.9
20260904090536 84 0 2.0 6.0 0.00 0.00 0.00 58 1012.0
20260904085516 84 0 2.0 4.0 0.00 0.00 0.00 57 1011.8
20260904084516 84 0 2.0 6.0 0.00 0.00 0.00 57 1011.8
20260904083516 84 0 1.0 5.0 0.00 0.00 0.00 57 1011.8
20260904082516 84 0 5.0 9.0 0.00 0.00 0.00 56 1011.8
20260904081516 85 0 3.0 6.0 0.00 0.00 0.00 56 1012.0
20260904080516 85 0 3.0 7.0 0.00 0.00 0.00 56 1012.0
20260904075537 85 0 3.0 7.0 0.00 0.00 0.00 56 1012.1
20260904074516 85 0 3.0 5.0 0.00 0.00 0.00 55 1012.0
20260904073516 85 0 3.0 6.0 0.00 0.00 0.00 55 1012.0
20260904072536 85 0 4.0 8.0 0.00 0.00 0.00 54 1011.9
20260904071516 86 0 3.0 8.0 0.00 0.00 0.00 54 1011.8
20260904070516 86 0 3.0 6.0 0.00 0.00 0.00 53 1011.7
20260904065517 86 0 3.0 7.0 0.00 0.00 0.00 53 1011.6
20260904064517 86 0 3.0 6.0 0.00 0.00 0.00 52 1011.6
20260904063517 86 0 3.0 8.0 0.00 0.00 0.00 52 1011.5
20260904062517 86 0 5.0 8.0 0.00 0.00 0.00 52 1011.4
20260904061518 87 0 4.0 7.0 0.00 0.00 0.00 51 1011.3
20260904060517 87 0 4.0 7.0 0.00 0.00 0.00 50 1011.4
20260904055517 87 0 5.0 9.0 0.00 0.00 0.00 49 1011.4
20260904054517 88 0 4.0 6.0 0.00 0.00 0.00 48 1011.3
20260904053557 88 0 4.0 8.0 0.00 0.00 0.00 46 1011.2
20260904052518 88 0 2.0 5.0 0.00 0.00 0.00 45 1011.3
20260904051517 88 0 2.0 5.0 0.00 0.00 0.00 45 1011.2
20260904050517 88 0 3.0 6.0 0.00 0.00 0.00 44 1011.1
20260904045517 88 0 2.0 4.0 0.00 0.00 0.00 44 1011.0
20260904044518 88 0 2.0 5.0 0.00 0.00 0.00 44 1011.0
20260904043517 88 0 2.0 4.0 0.00 0.00 0.00 44 1010.8
20260904042517 88 0 1.0 6.0 0.00 0.00 0.00 43 1010.7
20260904041517 89 0 2.0 4.0 0.00 0.00 0.00 43 1010.8
20260904040517 89 0 2.0 4.0 0.00 0.00 0.00 43 1010.6
20260904035517 89 0 2.0 5.0 0.00 0.00 0.00 42 1010.3
20260904034517 89 0 2.0 5.0 0.00 0.00 0.00 42 1010.2
20260904033517 89 0 2.0 4.0 0.00 0.00 0.00 43 1010.1
20260904032557 89 0 2.0 5.0 0.00 0.00 0.00 43 1010.1
20260904031517 89 0 3.0 7.0 0.00 0.00 0.00 42 1009.9
20260904030517 89 0 1.0 4.0 0.00 0.00 0.00 42 1009.8
20260904025538 89 0 2.0 4.0 0.00 0.00 0.00 41 1009.5
20260904024517 90 0 3.0 6.0 0.00 0.00 0.00 41 1009.5
20260904023517 90 0 3.0 6.0 0.00 0.00 0.00 42 1009.5
20260904022516 90 0 4.0 8.0 0.00 0.00 0.00 42 1009.3
20260904021517 91 0 5.0 10.0 0.00 0.00 0.00 41 1009.3
20260904020516 93 0 6.0 10.0 0.00 0.00 0.00 38 1009.4
20260904015517 93 0 1.0 3.0 0.00 0.00 0.00 34 1009.0